ニート彗星

P/2003 QX29 ( NEAT )

English version
Home page
Updated on November 29, 2003

---------------------------------------------------------------------

・ プロフィール

発見日 2003年8月23日
発見光度 19.8等
発見者 Near-Earth-Asteroid Tracking Team (Jet Propulsion Laboratory)

・ 軌道要素

T 2002 Oct. 26.8516 TT                                  MPC
q   4.240169             (2000.0)            P               Q
n   0.0433803      Peri.   37.3269      +0.5164938      +0.8333936
a   8.021843       Node   264.5700      -0.8255602      +0.4236560
e   0.471422       Incl.   11.3956      -0.2273422      +0.3549235
P  22.7
>From 93 observations 2003 Aug. 23-Oct. 20.

・ 星図

・ 光度変化

        m1 = 10.0 + 5 logΔ + 10.0 log r

---------------------------------------------------------------------

軌道要素はM.P.E.C. 2003-U32に掲載されたものです。
星図は StellaNavigator Ver.2.0 for Windows (アストロアーツ 編著 / アスキー出版局刊) で作成したものです。
光度グラフはComet for Windowsで作成したものです。

---------------------------------------------------------------------

Copyright(C) Seiichi Yoshida (comet@aerith.net). All rights reserved.